^^
TXWeather Station Historical Data
Daily Summary for May 17, 2022 Units:  English    Metric   Both
Daily Weekly Monthly Yearly Custom
  High: Low: Average:
Temperature: 98.0 °F 72.0 °F 83.7 °F
Dew Point: 74.0 °F 68.0 °F 70.9 °F
Humidity: 89% 43% 68%
Wind Speed: 15mph 0mph 6.6mph
Wind Gust: 22mph - -
Wind- - SSE
Pressure: 30.1 in 29.9 in -
Precipitation: 0.000 in    
Historical Graphs
 
 
Tabular Data for May 17, 2022
Time Temperature Dew Point Pressure Wind Wind Speed Wind Gust Humidity Rainfall Rate (Hourly) solar
00:04 79.0 °F 70.0 °F 30.0 in South 4 mph 9 mph 74% 0.000 in 0.00 W/m2
00:09 79.0 °F 71.0 °F 30.0 in South 5 mph 6 mph 75% 0.000 in 0.00 W/m2
00:14 79.0 °F 71.0 °F 30.0 in South 4 mph 6 mph 75% 0.000 in 0.00 W/m2
00:19 79.0 °F 71.0 °F 30.0 in South 9 mph 9 mph 76% 0.000 in 0.00 W/m2
00:24 79.0 °F 71.0 °F 30.0 in South 5 mph 9 mph 76% 0.000 in 0.00 W/m2
00:29 79.0 °F 70.0 °F 30.0 in South 9 mph 9 mph 76% 0.000 in 0.00 W/m2
00:34 78.0 °F 70.0 °F 30.0 in South 5 mph 9 mph 76% 0.000 in 0.00 W/m2
00:39 78.0 °F 71.0 °F 30.0 in SSW 7 mph 7 mph 77% 0.000 in 0.00 W/m2
00:44 78.0 °F 71.0 °F 30.0 in South 4 mph 7 mph 77% 0.000 in 0.00 W/m2
00:49 78.0 °F 71.0 °F 30.0 in SSW 4 mph 4 mph 77% 0.000 in 0.00 W/m2
00:54 78.0 °F 70.0 °F 30.0 in SSW 3 mph 5 mph 77% 0.000 in 0.00 W/m2
00:59 78.0 °F 70.0 °F 30.0 in SSW 3 mph 8 mph 78% 0.000 in 0.00 W/m2
01:04 78.0 °F 70.0 °F 30.0 in SSW 4 mph 8 mph 78% 0.000 in 0.00 W/m2
01:09 78.0 °F 70.0 °F 30.0 in SSW 3 mph 5 mph 78% 0.000 in 0.00 W/m2
01:14 78.0 °F 70.0 °F 30.0 in South 4 mph 4 mph 78% 0.000 in 0.00 W/m2
01:19 78.0 °F 70.0 °F 30.0 in South 3 mph 4 mph 78% 0.000 in 0.00 W/m2
01:24 77.0 °F 70.0 °F 30.0 in SW 3 mph 5 mph 78% 0.000 in 0.00 W/m2
01:29 77.0 °F 70.0 °F 30.0 in South 2 mph 5 mph 79% 0.000 in 0.00 W/m2
01:34 77.0 °F 70.0 °F 30.0 in SW 4 mph 4 mph 79% 0.000 in 0.00 W/m2
01:39 77.0 °F 70.0 °F 30.0 in SSW 4 mph 4 mph 79% 0.000 in 0.00 W/m2
01:44 77.0 °F 70.0 °F 30.0 in South 2 mph 2 mph 79% 0.000 in 0.00 W/m2
01:49 77.0 °F 70.0 °F 30.0 in South 5 mph 5 mph 79% 0.000 in 0.00 W/m2
01:54 77.0 °F 70.0 °F 30.0 in South 3 mph 6 mph 79% 0.000 in 0.00 W/m2
01:59 77.0 °F 70.0 °F 30.0 in South 4 mph 4 mph 80% 0.000 in 0.00 W/m2
02:04 77.0 °F 70.0 °F 30.0 in South 4 mph 5 mph 80% 0.000 in 0.00 W/m2
02:09 77.0 °F 70.0 °F 30.0 in SSW 3 mph 5 mph 80% 0.000 in 0.00 W/m2
02:14 77.0 °F 70.0 °F 30.0 in SSW 2 mph 5 mph 80% 0.000 in 0.00 W/m2
02:19 77.0 °F 70.0 °F 30.0 in SSW 3 mph 5 mph 81% 0.000 in 0.00 W/m2
02:24 76.0 °F 70.0 °F 30.0 in South 1 mph 2 mph 81% 0.000 in 0.00 W/m2
02:29 76.0 °F 70.0 °F 30.0 in SSW 3 mph 3 mph 81% 0.000 in 0.00 W/m2
02:34 76.0 °F 70.0 °F 30.0 in SW 3 mph 3 mph 81% 0.000 in 0.00 W/m2
02:39 76.0 °F 70.0 °F 30.0 in South 3 mph 3 mph 81% 0.000 in 0.00 W/m2
02:44 76.0 °F 70.0 °F 30.0 in South 2 mph 2 mph 81% 0.000 in 0.00 W/m2
02:49 76.0 °F 70.0 °F 30.0 in South 3 mph 3 mph 81% 0.000 in 0.00 W/m2
02:54 76.0 °F 69.0 °F 30.0 in South 4 mph 5 mph 81% 0.000 in 0.00 W/m2
02:59 76.0 °F 69.0 °F 30.0 in South 3 mph 3 mph 81% 0.000 in 0.00 W/m2
03:04 76.0 °F 70.0 °F 30.0 in SSE 1 mph 3 mph 82% 0.000 in 0.00 W/m2
03:09 76.0 °F 70.0 °F 30.0 in South 3 mph 3 mph 82% 0.000 in 0.00 W/m2
03:14 75.0 °F 69.0 °F 30.0 in South 3 mph 3 mph 82% 0.000 in 0.00 W/m2
03:19 75.0 °F 69.0 °F 30.0 in South 3 mph 4 mph 82% 0.000 in 0.00 W/m2
03:24 75.0 °F 69.0 °F 30.0 in South 3 mph 3 mph 82% 0.000 in 0.00 W/m2
03:29 75.0 °F 69.0 °F 30.0 in SSW 4 mph 5 mph 82% 0.000 in 0.00 W/m2
03:34 75.0 °F 69.0 °F 30.0 in SSE 2 mph 5 mph 82% 0.000 in 0.00 W/m2
03:39 75.0 °F 69.0 °F 30.0 in South 2 mph 2 mph 83% 0.000 in 0.00 W/m2
03:44 75.0 °F 69.0 °F 30.0 in South 2 mph 3 mph 83% 0.000 in 0.00 W/m2
03:49 75.0 °F 69.0 °F 30.0 in South 2 mph 2 mph 83% 0.000 in 0.00 W/m2
03:54 75.0 °F 69.0 °F 30.0 in South 2 mph 2 mph 83% 0.000 in 0.00 W/m2
03:59 75.0 °F 69.0 °F 30.0 in South 2 mph 2 mph 83% 0.000 in 0.00 W/m2
04:04 75.0 °F 69.0 °F 30.0 in South 3 mph 3 mph 83% 0.000 in 0.00 W/m2
04:09 75.0 °F 69.0 °F 30.0 in SSW 2 mph 2 mph 83% 0.000 in 0.00 W/m2
04:14 75.0 °F 69.0 °F 30.0 in SSW 3 mph 4 mph 83% 0.000 in 0.00 W/m2
04:19 75.0 °F 69.0 °F 30.0 in South 2 mph 2 mph 84% 0.000 in 0.00 W/m2
04:24 75.0 °F 69.0 °F 30.0 in South 3 mph 4 mph 84% 0.000 in 0.00 W/m2
04:29 74.0 °F 69.0 °F 30.0 in South 2 mph 4 mph 84% 0.000 in 0.00 W/m2
04:34 74.0 °F 69.0 °F 30.0 in SSW 3 mph 3 mph 84% 0.000 in 0.00 W/m2
04:39 74.0 °F 69.0 °F 30.0 in SSW 2 mph 2 mph 84% 0.000 in 0.00 W/m2
04:44 74.0 °F 69.0 °F 30.0 in SW 3 mph 3 mph 84% 0.000 in 0.00 W/m2
04:49 74.0 °F 69.0 °F 30.0 in South 2 mph 3 mph 84% 0.000 in 0.00 W/m2
04:59 74.0 °F 69.0 °F 30.0 in South 2 mph 3 mph 84% 0.000 in 0.00 W/m2
05:04 74.0 °F 69.0 °F 30.0 in South 2 mph 3 mph 84% 0.000 in 0.00 W/m2
05:09 74.0 °F 69.0 °F 30.0 in South 3 mph 3 mph 84% 0.000 in 0.00 W/m2
05:14 74.0 °F 68.0 °F 30.0 in SSW 2 mph 2 mph 84% 0.000 in 0.00 W/m2
05:19 74.0 °F 69.0 °F 30.0 in South 2 mph 2 mph 85% 0.000 in 0.00 W/m2
05:24 74.0 °F 69.0 °F 30.0 in South 1 mph 1 mph 85% 0.000 in 0.00 W/m2
05:29 73.0 °F 69.0 °F 30.0 in South 1 mph 2 mph 85% 0.000 in 0.00 W/m2
05:34 73.0 °F 69.0 °F 30.0 in South 1 mph 1 mph 85% 0.000 in 0.00 W/m2
05:39 73.0 °F 68.0 °F 30.0 in South 2 mph 2 mph 85% 0.000 in 0.00 W/m2
05:44 73.0 °F 68.0 °F 30.0 in SSW 2 mph 2 mph 85% 0.000 in 0.00 W/m2
05:49 73.0 °F 68.0 °F 30.0 in SSW 1 mph 2 mph 85% 0.000 in 0.00 W/m2
05:54 73.0 °F 68.0 °F 30.0 in SSW 2 mph 2 mph 85% 0.000 in 0.00 W/m2
05:59 73.0 °F 68.0 °F 30.0 in SSW 1 mph 1 mph 85% 0.000 in 0.00 W/m2
06:04 73.0 °F 68.0 °F 30.0 in South 1 mph 2 mph 85% 0.000 in 0.00 W/m2
06:09 73.0 °F 68.0 °F 30.0 in South 1 mph 2 mph 85% 0.000 in 0.00 W/m2
06:14 73.0 °F 68.0 °F 30.0 in Calm   1 mph 85% 0.000 in 0.00 W/m2
06:19 73.0 °F 68.0 °F 30.0 in South 2 mph 2 mph 85% 0.000 in 0.00 W/m2
06:24 72.0 °F 68.0 °F 30.0 in South 5 mph 5 mph 86% 0.000 in 0.00 W/m2
06:29 72.0 °F 68.0 °F 30.0 in SSE 2 mph 3 mph 86% 0.000 in 0.00 W/m2
06:34 72.0 °F 68.0 °F 30.0 in SSE 4 mph 4 mph 86% 0.000 in 5.00 W/m2
06:39 72.0 °F 68.0 °F 30.0 in South 1 mph 2 mph 86% 0.000 in 7.00 W/m2
06:44 72.0 °F 68.0 °F 30.0 in South 1 mph 1 mph 86% 0.000 in 12.00 W/m2
06:49 72.0 °F 68.0 °F 30.0 in SSE 2 mph 2 mph 86% 0.000 in 16.00 W/m2
06:54 72.0 °F 68.0 °F 30.0 in SSE 1 mph 3 mph 86% 0.000 in 19.00 W/m2
06:59 72.0 °F 68.0 °F 30.0 in SSE 3 mph 3 mph 86% 0.000 in 21.00 W/m2
07:04 72.0 °F 68.0 °F 30.0 in SSE 3 mph 3 mph 87% 0.000 in 25.00 W/m2
07:09 72.0 °F 68.0 °F 30.0 in SSE 3 mph 3 mph 87% 0.000 in 28.00 W/m2
07:14 73.0 °F 68.0 °F 30.0 in SSE 3 mph 4 mph 87% 0.000 in 33.00 W/m2
07:19 73.0 °F 69.0 °F 30.0 in South 3 mph 3 mph 87% 0.000 in 35.00 W/m2
07:24 73.0 °F 69.0 °F 30.0 in South 4 mph 4 mph 88% 0.000 in 37.00 W/m2
07:29 73.0 °F 69.0 °F 30.0 in South 3 mph 4 mph 88% 0.000 in 60.00 W/m2
07:34 73.0 °F 69.0 °F 30.0 in SSE 3 mph 4 mph 88% 0.000 in 91.00 W/m2
07:39 73.0 °F 69.0 °F 30.0 in South 3 mph 4 mph 88% 0.000 in 81.00 W/m2
07:44 74.0 °F 70.0 °F 30.0 in South 4 mph 6 mph 88% 0.000 in 79.00 W/m2
07:49 74.0 °F 70.0 °F 30.0 in South 2 mph 3 mph 88% 0.000 in 67.00 W/m2
07:54 74.0 °F 70.0 °F 30.0 in South 3 mph 4 mph 88% 0.000 in 84.00 W/m2
07:59 74.0 °F 71.0 °F 30.0 in SSE 4 mph 4 mph 89% 0.000 in 91.00 W/m2
08:04 75.0 °F 71.0 °F 30.0 in South 3 mph 3 mph 89% 0.000 in 105.00 W/m2
08:09 75.0 °F 71.0 °F 30.0 in South 5 mph 5 mph 88% 0.000 in 81.00 W/m2
08:14 75.0 °F 71.0 °F 30.0 in South 5 mph 5 mph 88% 0.000 in 98.00 W/m2
08:19 75.0 °F 71.0 °F 30.0 in South 4 mph 5 mph 88% 0.000 in 98.00 W/m2
08:24 75.0 °F 71.0 °F 30.0 in South 7 mph 12 mph 88% 0.000 in 88.00 W/m2
08:29 75.0 °F 71.0 °F 30.0 in South 4 mph 6 mph 88% 0.000 in 100.00 W/m2
08:34 75.0 °F 71.0 °F 30.0 in South 5 mph 6 mph 88% 0.000 in 127.00 W/m2
08:39 75.0 °F 71.0 °F 30.0 in South 5 mph 6 mph 87% 0.000 in 125.00 W/m2
08:44 76.0 °F 71.0 °F 30.0 in South 5 mph 6 mph 87% 0.000 in 209.00 W/m2
08:49 76.0 °F 72.0 °F 30.0 in SSE 6 mph 7 mph 87% 0.000 in 211.00 W/m2
08:54 76.0 °F 71.0 °F 30.0 in South 7 mph 7 mph 86% 0.000 in 176.00 W/m2
08:59 76.0 °F 72.0 °F 30.0 in South 4 mph 7 mph 86% 0.000 in 522.00 W/m2
09:04 77.0 °F 72.0 °F 30.0 in South 4 mph 5 mph 85% 0.000 in 522.00 W/m2
09:09 77.0 °F 72.0 °F 30.0 in SW 5 mph 7 mph 85% 0.000 in 517.00 W/m2
09:14 78.0 °F 72.0 °F 30.0 in SW 6 mph 7 mph 84% 0.000 in 517.00 W/m2
09:19 78.0 °F 72.0 °F 30.0 in SW 4 mph 4 mph 83% 0.000 in 178.00 W/m2
09:24 78.0 °F 72.0 °F 30.1 in SW 4 mph 5 mph 81% 0.000 in 172.00 W/m2
09:29 78.0 °F 71.0 °F 30.1 in SW 4 mph 5 mph 80% 0.000 in 142.00 W/m2
09:34 78.0 °F 71.0 °F 30.1 in WSW 5 mph 5 mph 79% 0.000 in 146.00 W/m2
09:39 79.0 °F 71.0 °F 30.1 in SW 5 mph 5 mph 78% 0.000 in 450.00 W/m2
09:44 79.0 °F 71.0 °F 30.1 in SW 3 mph 3 mph 77% 0.000 in 188.00 W/m2
09:49 79.0 °F 71.0 °F 30.1 in SW 3 mph 4 mph 77% 0.000 in 199.00 W/m2
09:54 80.0 °F 71.0 °F 30.1 in SSW 3 mph 3 mph 77% 0.000 in 192.00 W/m2
09:59 80.0 °F 71.0 °F 30.1 in SSW 4 mph 5 mph 75% 0.000 in 561.00 W/m2
10:04 80.0 °F 72.0 °F 30.1 in South 4 mph 4 mph 75% 0.000 in 561.00 W/m2
10:09 81.0 °F 72.0 °F 30.1 in South 4 mph 4 mph 75% 0.000 in 580.00 W/m2
10:14 81.0 °F 72.0 °F 30.1 in South 5 mph 5 mph 74% 0.000 in 605.00 W/m2
10:19 82.0 °F 72.0 °F 30.1 in South 4 mph 4 mph 72% 0.000 in 666.00 W/m2
10:24 83.0 °F 73.0 °F 30.1 in SSE 5 mph 5 mph 72% 0.000 in 707.00 W/m2
10:29 84.0 °F 72.0 °F 30.1 in SE 4 mph 4 mph 70% 0.000 in 735.00 W/m2
10:34 84.0 °F 72.0 °F 30.1 in ESE 7 mph 7 mph 68% 0.000 in 761.00 W/m2
10:39 85.0 °F 72.0 °F 30.1 in WSW 3 mph 4 mph 66% 0.000 in 779.00 W/m2
10:44 85.0 °F 72.0 °F 30.1 in South 4 mph 4 mph 65% 0.000 in 779.00 W/m2
10:49 86.0 °F 72.0 °F 30.1 in SSE 3 mph 4 mph 64% 0.000 in 772.00 W/m2
10:54 86.0 °F 72.0 °F 30.1 in SE 5 mph 5 mph 63% 0.000 in 784.00 W/m2
10:59 87.0 °F 73.0 °F 30.1 in SSE 5 mph 5 mph 63% 0.000 in 795.00 W/m2
11:04 87.0 °F 73.0 °F 30.1 in SSE 3 mph 6 mph 62% 0.000 in 805.00 W/m2
11:09 88.0 °F 73.0 °F 30.1 in SE 5 mph 6 mph 62% 0.000 in 816.00 W/m2
11:14 88.0 °F 72.0 °F 30.1 in SE 9 mph 9 mph 59% 0.000 in 828.00 W/m2
11:19 88.0 °F 72.0 °F 30.1 in SE 4 mph 7 mph 59% 0.000 in 833.00 W/m2
11:24 89.0 °F 72.0 °F 30.1 in NE 5 mph 5 mph 59% 0.000 in 840.00 W/m2
11:29 89.0 °F 72.0 °F 30.1 in SSE 8 mph 8 mph 58% 0.000 in 858.00 W/m2
11:34 89.0 °F 72.0 °F 30.1 in SSE 6 mph 8 mph 58% 0.000 in 868.00 W/m2
11:39 89.0 °F 71.0 °F 30.1 in SSE 3 mph 7 mph 56% 0.000 in 875.00 W/m2
11:44 90.0 °F 72.0 °F 30.1 in SE 8 mph 9 mph 56% 0.000 in 879.00 W/m2
11:49 90.0 °F 71.0 °F 30.1 in SSE 7 mph 8 mph 54% 0.000 in 888.00 W/m2
11:54 90.0 °F 72.0 °F 30.1 in SSE 8 mph 8 mph 55% 0.000 in 902.00 W/m2
11:59 90.0 °F 72.0 °F 30.1 in SSE 6 mph 7 mph 55% 0.000 in 904.00 W/m2
12:04 91.0 °F 71.0 °F 30.0 in SE 9 mph 11 mph 54% 0.000 in 916.00 W/m2
12:09 90.0 °F 70.0 °F 30.0 in SE 10 mph 11 mph 52% 0.000 in 919.00 W/m2
12:14 90.0 °F 71.0 °F 30.0 in SSE 10 mph 14 mph 53% 0.000 in 930.00 W/m2
12:19 91.0 °F 72.0 °F 30.0 in South 6 mph 9 mph 55% 0.000 in 937.00 W/m2
12:24 91.0 °F 74.0 °F 30.0 in SE 5 mph 7 mph 57% 0.000 in 939.00 W/m2
12:29 91.0 °F 73.0 °F 30.0 in SE 10 mph 11 mph 56% 0.000 in 951.00 W/m2
12:34 92.0 °F 74.0 °F 30.0 in SSE 7 mph 9 mph 56% 0.000 in 944.00 W/m2
12:39 92.0 °F 74.0 °F 30.0 in SSE 10 mph 10 mph 56% 0.000 in 958.00 W/m2
12:44 92.0 °F 73.0 °F 30.0 in SSE 6 mph 7 mph 53% 0.000 in 956.00 W/m2
12:49 93.0 °F 74.0 °F 30.0 in SSE 8 mph 8 mph 55% 0.000 in 949.00 W/m2
12:54 93.0 °F 74.0 °F 30.0 in SSE 7 mph 8 mph 55% 0.000 in 962.00 W/m2
12:59 93.0 °F 73.0 °F 30.0 in SSE 12 mph 12 mph 53% 0.000 in 962.00 W/m2
13:04 93.0 °F 72.0 °F 30.0 in SE 6 mph 12 mph 51% 0.000 in 962.00 W/m2
13:09 93.0 °F 72.0 °F 30.0 in SE 9 mph 9 mph 51% 0.000 in 962.00 W/m2
13:14 93.0 °F 73.0 °F 30.0 in SSE 10 mph 10 mph 51% 0.000 in 965.00 W/m2
13:19 93.0 °F 72.0 °F 30.0 in SE 8 mph 9 mph 51% 0.000 in 956.00 W/m2
13:24 94.0 °F 73.0 °F 30.0 in SSE 8 mph 9 mph 52% 0.000 in 967.00 W/m2
13:29 94.0 °F 72.0 °F 30.0 in SE 8 mph 9 mph 50% 0.000 in 967.00 W/m2
13:34 94.0 °F 73.0 °F 30.0 in SSE 7 mph 9 mph 51% 0.000 in 951.00 W/m2
13:39 94.0 °F 73.0 °F 30.0 in SSE 10 mph 10 mph 50% 0.000 in 960.00 W/m2
13:44 94.0 °F 72.0 °F 30.0 in SE 8 mph 10 mph 49% 0.000 in 962.00 W/m2
13:49 94.0 °F 73.0 °F 30.0 in SSE 8 mph 8 mph 50% 0.000 in 956.00 W/m2
13:54 95.0 °F 73.0 °F 30.0 in SSE 7 mph 8 mph 50% 0.000 in 954.00 W/m2
13:59 95.0 °F 73.0 °F 30.0 in SSE 10 mph 10 mph 49% 0.000 in 949.00 W/m2
14:04 95.0 °F 72.0 °F 30.0 in SSE 9 mph 10 mph 48% 0.000 in 946.00 W/m2
14:09 95.0 °F 72.0 °F 30.0 in SSE 14 mph 14 mph 48% 0.000 in 940.00 W/m2
14:14 95.0 °F 71.0 °F 30.0 in SSE 14 mph 22 mph 47% 0.000 in 942.00 W/m2
14:19 95.0 °F 72.0 °F 30.0 in SSE 13 mph 13 mph 48% 0.000 in 935.00 W/m2
14:24 95.0 °F 73.0 °F 30.0 in SSE 12 mph 13 mph 48% 0.000 in 923.00 W/m2
14:29 96.0 °F 73.0 °F 30.0 in SSE 12 mph 12 mph 48% 0.000 in 916.00 W/m2
14:34 96.0 °F 72.0 °F 30.0 in SSE 7 mph 12 mph 47% 0.000 in 914.00 W/m2
14:39 96.0 °F 72.0 °F 30.0 in SSE 13 mph 14 mph 46% 0.000 in 904.00 W/m2
14:44 96.0 °F 72.0 °F 30.0 in SSE 13 mph 13 mph 47% 0.000 in 902.00 W/m2
14:49 96.0 °F 73.0 °F 30.0 in South 9 mph 9 mph 47% 0.000 in 895.00 W/m2
14:54 96.0 °F 73.0 °F 30.0 in SE 10 mph 10 mph 47% 0.000 in 889.00 W/m2
14:59 96.0 °F 73.0 °F 30.0 in SE 8 mph 8 mph 47% 0.000 in 884.00 W/m2
15:04 96.0 °F 72.0 °F 30.0 in SSE 8 mph 9 mph 46% 0.000 in 884.00 W/m2
15:09 96.0 °F 73.0 °F 30.0 in SE 12 mph 12 mph 47% 0.000 in 865.00 W/m2
15:14 96.0 °F 73.0 °F 30.0 in SE 9 mph 10 mph 47% 0.000 in 849.00 W/m2
15:19 96.0 °F 73.0 °F 30.0 in SE 9 mph 10 mph 47% 0.000 in 840.00 W/m2
15:24 96.0 °F 72.0 °F 30.0 in SE 10 mph 11 mph 46% 0.000 in 831.00 W/m2
15:29 96.0 °F 72.0 °F 30.0 in SE 8 mph 12 mph 46% 0.000 in 821.00 W/m2
15:34 97.0 °F 72.0 °F 30.0 in SSE 11 mph 12 mph 45% 0.000 in 812.00 W/m2
15:39 97.0 °F 72.0 °F 30.0 in SSE 8 mph 8 mph 45% 0.000 in 803.00 W/m2
15:44 97.0 °F 71.0 °F 30.0 in SSE 9 mph 10 mph 44% 0.000 in 791.00 W/m2
15:49 97.0 °F 71.0 °F 30.0 in SSE 12 mph 13 mph 44% 0.000 in 780.00 W/m2
15:54 97.0 °F 71.0 °F 30.0 in SSE 11 mph 13 mph 44% 0.000 in 768.00 W/m2
15:59 97.0 °F 71.0 °F 30.0 in SSE 7 mph 7 mph 44% 0.000 in 756.00 W/m2
16:04 97.0 °F 71.0 °F 30.0 in SSE 13 mph 14 mph 44% 0.000 in 740.00 W/m2
16:09 97.0 °F 72.0 °F 30.0 in SE 11 mph 12 mph 45% 0.000 in 726.00 W/m2
16:14 97.0 °F 72.0 °F 30.0 in SSE 10 mph 12 mph 45% 0.000 in 712.00 W/m2
16:19 97.0 °F 72.0 °F 30.0 in SE 8 mph 8 mph 45% 0.000 in 700.00 W/m2
16:24 97.0 °F 72.0 °F 30.0 in SSE 10 mph 11 mph 45% 0.000 in 694.00 W/m2
16:29 97.0 °F 72.0 °F 30.0 in SSE 13 mph 13 mph 45% 0.000 in 677.00 W/m2
16:34 97.0 °F 72.0 °F 30.0 in SE 9 mph 13 mph 45% 0.000 in 657.00 W/m2
16:39 97.0 °F 73.0 °F 30.0 in SSE 7 mph 9 mph 46% 0.000 in 642.00 W/m2
16:44 97.0 °F 73.0 °F 30.0 in South 6 mph 8 mph 46% 0.000 in 631.00 W/m2
16:49 97.0 °F 73.0 °F 30.0 in SE 12 mph 13 mph 45% 0.000 in 613.00 W/m2
16:54 97.0 °F 72.0 °F 30.0 in SE 8 mph 13 mph 44% 0.000 in 608.00 W/m2
16:59 97.0 °F 73.0 °F 30.0 in SSE 10 mph 10 mph 45% 0.000 in 580.00 W/m2
17:04 98.0 °F 72.0 °F 30.0 in SSE 7 mph 9 mph 44% 0.000 in 566.00 W/m2
17:09 98.0 °F 73.0 °F 30.0 in SSE 13 mph 15 mph 45% 0.000 in 550.00 W/m2
17:14 98.0 °F 71.0 °F 30.0 in SSE 10 mph 15 mph 43% 0.000 in 527.00 W/m2
17:19 97.0 °F 72.0 °F 30.0 in SSE 10 mph 13 mph 44% 0.000 in 519.00 W/m2
17:24 97.0 °F 71.0 °F 30.0 in South 12 mph 12 mph 44% 0.000 in 501.00 W/m2
17:29 97.0 °F 71.0 °F 29.9 in South 8 mph 11 mph 44% 0.000 in 483.00 W/m2
17:34 97.0 °F 71.0 °F 29.9 in SSE 10 mph 11 mph 44% 0.000 in 466.00 W/m2
17:39 97.0 °F 71.0 °F 29.9 in SSE 12 mph 12 mph 44% 0.000 in 450.00 W/m2
17:44 96.0 °F 71.0 °F 29.9 in SSE 15 mph 15 mph 45% 0.000 in 429.00 W/m2
17:49 96.0 °F 71.0 °F 29.9 in SSE 13 mph 13 mph 45% 0.000 in 410.00 W/m2
17:54 96.0 °F 71.0 °F 29.9 in SSE 7 mph 14 mph 46% 0.000 in 397.00 W/m2
17:59 96.0 °F 71.0 °F 29.9 in SSE 15 mph 15 mph 45% 0.000 in 381.00 W/m2
18:04 95.0 °F 71.0 °F 29.9 in SSE 10 mph 10 mph 45% 0.000 in 360.00 W/m2
18:09 95.0 °F 72.0 °F 29.9 in SSE 9 mph 10 mph 47% 0.000 in 341.00 W/m2
18:14 95.0 °F 72.0 °F 30.0 in South 13 mph 13 mph 48% 0.000 in 320.00 W/m2
18:19 95.0 °F 72.0 °F 30.0 in SSE 12 mph 13 mph 48% 0.000 in 306.00 W/m2
18:24 95.0 °F 72.0 °F 29.9 in SE 12 mph 17 mph 48% 0.000 in 288.00 W/m2
18:29 94.0 °F 71.0 °F 30.0 in SSE 15 mph 17 mph 48% 0.000 in 271.00 W/m2
18:34 94.0 °F 72.0 °F 30.0 in SSE 8 mph 16 mph 49% 0.000 in 253.00 W/m2
18:39 94.0 °F 72.0 °F 30.0 in SSE 11 mph 16 mph 49% 0.000 in 234.00 W/m2
18:44 93.0 °F 72.0 °F 29.9 in SSE 11 mph 14 mph 50% 0.000 in 220.00 W/m2
18:49 93.0 °F 72.0 °F 29.9 in SE 13 mph 15 mph 51% 0.000 in 200.00 W/m2
18:54 93.0 °F 72.0 °F 29.9 in SSE 14 mph 14 mph 52% 0.000 in 186.00 W/m2
18:59 92.0 °F 72.0 °F 29.9 in SSE 12 mph 13 mph 53% 0.000 in 167.00 W/m2
19:04 92.0 °F 73.0 °F 29.9 in SSE 14 mph 14 mph 54% 0.000 in 144.00 W/m2
19:09 91.0 °F 73.0 °F 30.0 in SSE 9 mph 11 mph 55% 0.000 in 118.00 W/m2
19:14 91.0 °F 73.0 °F 30.0 in SSE 9 mph 12 mph 56% 0.000 in 46.00 W/m2
19:19 90.0 °F 73.0 °F 30.0 in SSE 8 mph 10 mph 57% 0.000 in 40.00 W/m2
19:24 90.0 °F 73.0 °F 30.0 in SSE 10 mph 11 mph 57% 0.000 in 35.00 W/m2
19:29 89.0 °F 72.0 °F 30.0 in SSE 12 mph 13 mph 57% 0.000 in 32.00 W/m2
19:34 89.0 °F 72.0 °F 30.0 in SE 11 mph 13 mph 58% 0.000 in 28.00 W/m2
19:39 89.0 °F 72.0 °F 30.0 in SE 12 mph 13 mph 58% 0.000 in 25.00 W/m2
19:44 88.0 °F 72.0 °F 30.0 in SSE 11 mph 11 mph 59% 0.000 in 21.00 W/m2
19:49 88.0 °F 72.0 °F 30.0 in SSE 9 mph 14 mph 59% 0.000 in 14.00 W/m2
19:54 87.0 °F 71.0 °F 30.0 in SSE 13 mph 14 mph 59% 0.000 in 11.00 W/m2
19:59 87.0 °F 71.0 °F 30.0 in SSE 7 mph 13 mph 60% 0.000 in 9.00 W/m2
20:04 86.0 °F 71.0 °F 30.0 in SSE 8 mph 13 mph 60% 0.000 in 5.00 W/m2
20:09 86.0 °F 71.0 °F 30.0 in SSE 10 mph 13 mph 61% 0.000 in 0.00 W/m2
20:14 86.0 °F 71.0 °F 30.0 in SSE 8 mph 10 mph 62% 0.000 in 0.00 W/m2
20:19 86.0 °F 71.0 °F 30.0 in SSE 6 mph 7 mph 62% 0.000 in 0.00 W/m2
20:24 85.0 °F 71.0 °F 30.0 in SSE 9 mph 9 mph 63% 0.000 in 0.00 W/m2
20:29 85.0 °F 71.0 °F 30.0 in SE 12 mph 12 mph 63% 0.000 in 0.00 W/m2
20:34 85.0 °F 71.0 °F 30.0 in SSE 9 mph 12 mph 64% 0.000 in 0.00 W/m2
20:39 85.0 °F 71.0 °F 30.0 in SSE 10 mph 10 mph 64% 0.000 in 0.00 W/m2
20:44 84.0 °F 71.0 °F 30.0 in SSE 10 mph 10 mph 64% 0.000 in 0.00 W/m2
20:49 84.0 °F 71.0 °F 30.0 in SSE 11 mph 11 mph 65% 0.000 in 0.00 W/m2
20:54 84.0 °F 71.0 °F 30.0 in SSE 11 mph 12 mph 65% 0.000 in 0.00 W/m2
20:59 84.0 °F 71.0 °F 30.0 in SSE 8 mph 10 mph 66% 0.000 in 0.00 W/m2
21:04 83.0 °F 71.0 °F 30.0 in SSE 9 mph 11 mph 66% 0.000 in 0.00 W/m2
21:09 83.0 °F 71.0 °F 30.0 in SSE 9 mph 10 mph 67% 0.000 in 0.00 W/m2
21:14 83.0 °F 71.0 °F 30.0 in SSE 7 mph 9 mph 67% 0.000 in 0.00 W/m2
21:19 83.0 °F 71.0 °F 30.0 in SSE 10 mph 10 mph 67% 0.000 in 0.00 W/m2
21:24 82.0 °F 71.0 °F 30.0 in SSE 6 mph 10 mph 68% 0.000 in 0.00 W/m2
21:29 82.0 °F 71.0 °F 30.0 in SSE 8 mph 8 mph 68% 0.000 in 0.00 W/m2
21:34 82.0 °F 71.0 °F 30.0 in SSE 10 mph 11 mph 69% 0.000 in 0.00 W/m2
21:39 82.0 °F 71.0 °F 30.0 in SSE 8 mph 8 mph 69% 0.000 in 0.00 W/m2
21:44 82.0 °F 71.0 °F 30.0 in SSE 10 mph 14 mph 70% 0.000 in 0.00 W/m2
21:49 82.0 °F 71.0 °F 30.0 in SSE 9 mph 11 mph 70% 0.000 in 0.00 W/m2
21:54 81.0 °F 71.0 °F 30.0 in SSE 13 mph 15 mph 70% 0.000 in 0.00 W/m2
21:59 81.0 °F 71.0 °F 30.0 in SE 12 mph 12 mph 71% 0.000 in 0.00 W/m2
22:04 81.0 °F 71.0 °F 30.0 in SSE 10 mph 14 mph 71% 0.000 in 0.00 W/m2
22:09 81.0 °F 71.0 °F 30.0 in SSE 13 mph 14 mph 71% 0.000 in 0.00 W/m2
22:14 80.0 °F 70.0 °F 30.0 in SSE 8 mph 9 mph 72% 0.000 in 0.00 W/m2
22:19 80.0 °F 70.0 °F 30.0 in SSE 9 mph 10 mph 72% 0.000 in 0.00 W/m2
22:24 80.0 °F 70.0 °F 30.0 in SSE 12 mph 12 mph 72% 0.000 in 0.00 W/m2
22:29 80.0 °F 70.0 °F 30.0 in SSE 7 mph 8 mph 72% 0.000 in 0.00 W/m2
22:34 80.0 °F 70.0 °F 30.0 in SSE 6 mph 8 mph 73% 0.000 in 0.00 W/m2
22:39 80.0 °F 70.0 °F 30.0 in SSE 9 mph 12 mph 73% 0.000 in 0.00 W/m2
22:44 79.0 °F 70.0 °F 30.0 in SSE 9 mph 11 mph 74% 0.000 in 0.00 W/m2
22:49 79.0 °F 70.0 °F 30.0 in SSE 6 mph 8 mph 74% 0.000 in 0.00 W/m2
22:54 79.0 °F 70.0 °F 30.0 in SSE 7 mph 7 mph 74% 0.000 in 0.00 W/m2
22:59 79.0 °F 70.0 °F 30.0 in SSE 8 mph 13 mph 75% 0.000 in 0.00 W/m2
23:04 79.0 °F 70.0 °F 30.0 in SSE 9 mph 13 mph 75% 0.000 in 0.00 W/m2
23:09 79.0 °F 70.0 °F 30.0 in SSE 7 mph 7 mph 75% 0.000 in 0.00 W/m2
23:14 78.0 °F 70.0 °F 30.0 in SSE 9 mph 9 mph 75% 0.000 in 0.00 W/m2
23:19 78.0 °F 70.0 °F 30.0 in SSE 6 mph 7 mph 76% 0.000 in 0.00 W/m2
23:24 78.0 °F 70.0 °F 30.0 in SSE 10 mph 10 mph 76% 0.000 in 0.00 W/m2
23:29 78.0 °F 70.0 °F 30.0 in SSE 10 mph 10 mph 76% 0.000 in 0.00 W/m2
23:34 78.0 °F 70.0 °F 30.0 in SSE 10 mph 10 mph 77% 0.000 in 0.00 W/m2
23:39 78.0 °F 70.0 °F 30.0 in SSE 7 mph 10 mph 77% 0.000 in 0.00 W/m2
23:44 78.0 °F 70.0 °F 30.0 in SSE 8 mph 9 mph 77% 0.000 in 0.00 W/m2
23:49 78.0 °F 70.0 °F 30.0 in SSE 8 mph 9 mph 77% 0.000 in 0.00 W/m2
23:54 78.0 °F 70.0 °F 30.0 in SSE 8 mph 8 mph 77% 0.000 in 0.00 W/m2
23:59 78.0 °F 70.0 °F 30.0 in SSE 8 mph 9 mph 78% 0.000 in 0.00 W/m2
Villages of Bridgestone, Spring, TX USA
Compliments of Weather Underground - 4 mb